Location: Cabeza de los Veneras
(40.2000°N, 5.2000°W)
Time: 02:22:47
(UTC+00:00)

Cosmos 2100 Rocket - Pass Details

Date: 18 April 2024
Orbit: 955 x 1001 km, 82.9° (Epoch: 25 May)

Event Time Altitude Azimuth Distance (km) Brightness Sun altitude
Rises 21:46:09 0° 358° (N) 3,725 7.7 -27.4°
Reaches altitude 10° 21:48:50 10° 4° (N) 2,768 6.9 -27.8°
Enters shadow 21:54:20 45° 61° (ENE) 1,315 4.5 -28.5°
